Time,TemperatureF,DewpointF,PressureIn,WindDirection,WindDirectionDegrees,WindSpeedMPH,WindSpeedGustMPH,Humidity,HourlyPrecipIn,Conditions,Clouds,dailyrainin,SoftwareType,DateUTC
2013-09-05 00:13:00,-999.0,-99.9,30.08,South,175,4.0,4.0,-999,-99.99,,,-99.99,,2013-09-05 04:13:00,
2013-09-05 00:34:00,-999.0,-99.9,30.08,SSE,149,2.0,3.0,-999,-99.99,,,-99.99,,2013-09-05 04:34:00,
2013-09-05 00:53:00,-999.0,-99.9,30.08,South,186,4.0,4.0,-999,-99.99,,,-99.99,,2013-09-05 04:53:00,
2013-09-05 01:23:00,-999.0,-99.9,30.08,South,187,1.0,2.0,-999,-99.99,,,-99.99,,2013-09-05 05:23:00,
2013-09-05 01:34:00,-999.0,-99.9,30.08,SSW,211,2.0,3.0,-999,-99.99,,,-99.99,,2013-09-05 05:34:00,
2013-09-05 01:43:00,-999.0,-99.9,30.08,South,177,2.0,3.0,-999,-99.99,,,-99.99,,2013-09-05 05:43:00,
2013-09-05 02:13:00,-999.0,-99.9,30.07,SSW,198,2.0,4.0,-999,-99.99,,,-99.99,,2013-09-05 06:13:00,
2013-09-05 02:52:00,79.0,-99.9,30.07,North,-999,-999.0,-999.0,-999,-99.99,,,-99.99,,2013-09-05 06:52:00,
2013-09-05 03:12:00,-999.0,-99.9,30.06,SW,222,2.0,3.0,-999,-99.99,,,-99.99,,2013-09-05 07:12:00,
2013-09-05 03:23:00,-999.0,-99.9,30.06,SSW,207,3.0,5.0,-999,-99.99,,,-99.99,,2013-09-05 07:23:00,
2013-09-05 03:32:00,-999.0,-99.9,30.06,SSW,199,4.0,5.0,-999,-99.99,,,-99.99,,2013-09-05 07:32:00,
2013-09-05 04:03:00,-999.0,-99.9,30.05,SW,234,2.0,3.0,-999,-99.99,,,-99.99,,2013-09-05 08:03:00,
2013-09-05 04:12:00,-999.0,-99.9,30.05,WNW,294,2.0,3.0,-999,-99.99,,,-99.99,,2013-09-05 08:12:00,
2013-09-05 04:22:00,-999.0,-99.9,30.05,West,276,1.0,1.0,-999,-99.99,,,-99.99,,2013-09-05 08:22:00,
2013-09-05 04:42:00,-999.0,-99.9,30.05,West,264,1.0,2.0,-999,-99.99,,,-99.99,,2013-09-05 08:42:00,
2013-09-05 05:11:00,-999.0,-99.9,30.05,North,352,2.0,2.0,-999,-99.99,,,-99.99,,2013-09-05 09:11:00,
2013-09-05 05:22:00,-999.0,-99.9,30.05,NNE,24,2.0,2.0,-999,-99.99,,,-99.99,,2013-09-05 09:22:00,
2013-09-05 05:43:00,-999.0,-99.9,30.05,NNE,15,1.0,2.0,-999,-99.99,,,-99.99,,2013-09-05 09:43:00,
2013-09-05 06:23:00,-999.0,-99.9,30.05,East,86,1.0,1.0,-999,-99.99,,,-99.99,,2013-09-05 10:23:00,
2013-09-05 06:43:00,-999.0,-99.9,30.05,NNE,21,3.0,3.0,-999,-99.99,,,-99.99,,2013-09-05 10:43:00,
2013-09-05 07:03:00,-999.0,-99.9,30.06,NE,37,1.0,1.0,-999,-99.99,,,-99.99,,2013-09-05 11:03:00,
2013-09-05 07:22:00,76.0,-99.9,30.06,North,-999,-999.0,-999.0,-999,-99.99,,,-99.99,,2013-09-05 11:22:00,
2013-09-05 07:34:00,-999.0,-99.9,30.07,NE,50,1.0,1.0,-999,-99.99,,,-99.99,,2013-09-05 11:34:00,
2013-09-05 07:43:00,-999.0,-99.9,30.07,NNE,29,1.0,1.0,-999,-99.99,,,-99.99,,2013-09-05 11:43:00,
2013-09-05 08:01:00,-999.0,-99.9,30.07,NNW,345,1.0,1.0,-999,-99.99,,,-99.99,,2013-09-05 12:01:00,
2013-09-05 08:22:00,-999.0,-99.9,30.07,NNE,18,1.0,1.0,-999,-99.99,,,-99.99,,2013-09-05 12:22:00,
2013-09-05 08:32:00,-999.0,-99.9,30.08,NNE,16,2.0,4.0,-999,-99.99,,,-99.99,,2013-09-05 12:32:00,
2013-09-05 08:42:00,-999.0,-99.9,30.08,NNE,17,3.0,4.0,-999,-99.99,,,-99.99,,2013-09-05 12:42:00,
2013-09-05 08:52:00,-999.0,-99.9,30.08,NNE,21,4.0,5.0,-999,-99.99,,,-99.99,,2013-09-05 12:52:00,
2013-09-05 09:02:00,-999.0,-99.9,30.08,North,0,4.0,5.0,-999,-99.99,,,-99.99,,2013-09-05 13:02:00,
2013-09-05 09:32:00,-999.0,-99.9,30.08,North,11,2.0,3.0,-999,-99.99,,,-99.99,,2013-09-05 13:32:00,
2013-09-05 09:53:00,-999.0,-99.9,30.09,NNW,334,1.0,3.0,-999,-99.99,,,-99.99,,2013-09-05 13:53:00,
2013-09-05 10:12:00,-999.0,-99.9,30.09,NNW,345,2.0,4.0,-999,-99.99,,,-99.99,,2013-09-05 14:12:00,
2013-09-05 10:32:00,-999.0,-99.9,30.09,NNE,17,3.0,3.0,-999,-99.99,,,-99.99,,2013-09-05 14:32:00,
2013-09-05 11:02:00,-999.0,-99.9,30.09,NNW,343,5.0,7.0,-999,-99.99,,,-99.99,,2013-09-05 15:02:00,
2013-09-05 11:34:00,-999.0,-99.9,30.09,NNE,30,3.0,4.0,-999,-99.99,,,-99.99,,2013-09-05 15:34:00,
2013-09-05 11:54:00,-999.0,-99.9,30.09,NNW,340,2.0,3.0,-999,-99.99,,,-99.99,,2013-09-05 15:54:00,
2013-09-05 12:03:00,-999.0,-99.9,30.09,South,174,6.0,8.0,-999,-99.99,,,-99.99,,2013-09-05 16:03:00,
2013-09-05 12:33:00,-999.0,-99.9,30.09,South,188,8.0,10.0,-999,-99.99,,,-99.99,,2013-09-05 16:33:00,
2013-09-05 12:43:00,-999.0,-99.9,30.08,South,177,9.0,10.0,-999,-99.99,,,-99.99,,2013-09-05 16:43:00,
2013-09-05 12:54:00,-999.0,-99.9,30.08,South,181,10.0,11.0,-999,-99.99,,,-99.99,,2013-09-05 16:54:00,
2013-09-05 13:03:00,-999.0,-99.9,30.08,South,177,10.0,11.0,-999,-99.99,,,-99.99,,2013-09-05 17:03:00,
2013-09-05 13:12:00,-999.0,-99.9,30.08,South,188,10.0,13.0,-999,-99.99,,,-99.99,,2013-09-05 17:12:00,
2013-09-05 13:23:00,-999.0,-99.9,30.07,South,190,10.0,12.0,-999,-99.99,,,-99.99,,2013-09-05 17:23:00,
2013-09-05 13:43:00,-999.0,-99.9,30.07,SSW,192,12.0,13.0,-999,-99.99,,,-99.99,,2013-09-05 17:43:00,
2013-09-05 13:52:00,81.0,-99.9,30.06,North,-999,-999.0,-999.0,-999,-99.99,,,-99.99,,2013-09-05 17:52:00,
2013-09-05 14:03:00,-999.0,-99.9,30.06,South,182,12.0,13.0,-999,-99.99,,,-99.99,,2013-09-05 18:03:00,
2013-09-05 15:22:00,-999.0,-99.9,30.04,South,172,12.0,14.0,-999,-99.99,,,-99.99,,2013-09-05 19:22:00,
2013-09-05 15:32:00,-999.0,-99.9,30.05,South,185,9.0,11.0,-999,-99.99,,,-99.99,,2013-09-05 19:32:00,
2013-09-05 15:42:00,-999.0,-99.9,30.04,South,177,11.0,12.0,-999,-99.99,,,-99.99,,2013-09-05 19:42:00,
2013-09-05 16:32:00,-999.0,-99.9,30.04,WSW,237,2.0,3.0,-999,-99.99,,,-99.99,,2013-09-05 20:32:00,
2013-09-05 17:12:00,-999.0,-99.9,30.03,SW,217,3.0,4.0,-999,-99.99,,,-99.99,,2013-09-05 21:12:00,
2013-09-05 17:22:00,-999.0,-99.9,30.03,WSW,237,2.0,5.0,-999,-99.99,,,-99.99,,2013-09-05 21:22:00,
2013-09-05 18:13:00,-999.0,-99.9,30.03,WSW,247,2.0,4.0,-999,-99.99,,,-99.99,,2013-09-05 22:13:00,
2013-09-05 18:24:00,-999.0,-99.9,30.03,SSW,200,2.0,2.0,-999,-99.99,,,-99.99,,2013-09-05 22:24:00,
2013-09-05 18:43:00,-999.0,-99.9,30.03,SW,228,1.0,3.0,-999,-99.99,,,-99.99,,2013-09-05 22:43:00,
2013-09-05 18:53:00,-999.0,-99.9,30.03,SSW,204,4.0,5.0,-999,-99.99,,,-99.99,,2013-09-05 22:53:00,
2013-09-05 19:42:00,-999.0,-99.9,30.03,WSW,258,1.0,2.0,-999,-99.99,,,-99.99,,2013-09-05 23:42:00,
2013-09-05 19:53:00,-999.0,-99.9,30.02,SW,225,2.0,3.0,-999,-99.99,,,-99.99,,2013-09-05 23:53:00,
2013-09-05 20:22:00,-999.0,-99.9,30.02,NW,305,1.0,1.0,-999,-99.99,,,-99.99,,2013-09-06 00:22:00,
2013-09-05 20:42:00,-999.0,-99.9,30.03,WSW,252,1.0,2.0,-999,-99.99,,,-99.99,,2013-09-06 00:42:00,
2013-09-05 20:52:00,-999.0,-99.9,30.03,WSW,253,1.0,1.0,-999,-99.99,,,-99.99,,2013-09-06 00:52:00,
2013-09-05 21:11:00,-999.0,-99.9,30.03,NW,305,1.0,2.0,-999,-99.99,,,-99.99,,2013-09-06 01:11:00,
2013-09-05 21:42:00,79.0,-99.9,30.04,WNW,292,1.0,2.0,-999,-99.99,,,-99.99,,2013-09-06 01:42:00,
2013-09-05 22:02:00,-999.0,-99.9,30.04,NNW,336,1.0,2.0,-999,-99.99,,,-99.99,,2013-09-06 02:02:00,
2013-09-05 22:22:00,-999.0,-99.9,30.05,NW,319,2.0,2.0,-999,-99.99,,,-99.99,,2013-09-06 02:22:00,
2013-09-05 22:33:00,-999.0,-99.9,30.05,NNW,336,2.0,3.0,-999,-99.99,,,-99.99,,2013-09-06 02:33:00,
2013-09-05 23:02:00,-999.0,-99.9,30.06,North,7,1.0,2.0,-999,-99.99,,,-99.99,,2013-09-06 03:02:00,
2013-09-05 23:44:00,-999.0,-99.9,30.06,North,352,1.0,2.0,-999,-99.99,,,-99.99,,2013-09-06 03:44:00,